TimeCDT,TemperatureF,Dew PointF,Humidity,Sea Level PressureIn,VisibilityMPH,Wind Direction,Wind SpeedMPH,Gust SpeedMPH,PrecipitationIn,Events,Conditions,WindDirDegrees,DateUTC
12:15 AM,17.8,13.5,83,30.32,10.0,Calm,Calm,-,N/A,,Clear,0,2013-03-26 05:15:00
12:35 AM,18.0,13.6,83,30.33,10.0,Calm,Calm,-,N/A,,Clear,0,2013-03-26 05:35:00
12:55 AM,18.7,13.6,81,30.32,10.0,Calm,Calm,-,N/A,,Clear,0,2013-03-26 05:55:00
1:15 AM,16.7,12.9,85,30.32,10.0,WSW,3.5,-,N/A,,Clear,240,2013-03-26 06:15:00
1:35 AM,16.5,12.4,84,30.32,10.0,Calm,Calm,-,N/A,,Clear,0,2013-03-26 06:35:00
1:55 AM,16.7,12.2,82,30.32,10.0,WSW,3.5,-,N/A,,Clear,240,2013-03-26 06:55:00
2:15 AM,17.4,12.9,83,30.31,10.0,WSW,3.5,-,N/A,,Clear,250,2013-03-26 07:15:00
2:35 AM,16.5,12.0,82,30.31,10.0,Calm,Calm,-,N/A,,Clear,0,2013-03-26 07:35:00
2:55 AM,16.5,12.0,82,30.31,10.0,WSW,4.6,-,N/A,,Clear,240,2013-03-26 07:55:00
3:15 AM,16.7,12.4,83,30.31,10.0,Calm,Calm,-,N/A,,Clear,0,2013-03-26 08:15:00
3:35 AM,16.5,11.8,82,30.31,10.0,WSW,3.5,-,N/A,,Clear,240,2013-03-26 08:35:00
3:55 AM,15.8,11.8,84,30.30,10.0,WSW,3.5,-,N/A,,Clear,250,2013-03-26 08:55:00
4:15 AM,17.2,12.0,80,30.29,10.0,Calm,Calm,-,N/A,,Clear,0,2013-03-26 09:15:00
4:35 AM,14.9,11.1,85,30.29,10.0,Calm,Calm,-,N/A,,Clear,0,2013-03-26 09:35:00
4:55 AM,14.9,11.1,85,30.29,10.0,Calm,Calm,-,N/A,,Clear,0,2013-03-26 09:55:00
5:15 AM,15.3,11.7,86,30.28,10.0,Calm,Calm,-,N/A,,Clear,0,2013-03-26 10:15:00
5:35 AM,15.1,11.3,85,30.28,10.0,Calm,Calm,-,N/A,,Clear,0,2013-03-26 10:35:00
5:55 AM,15.4,12.0,86,30.28,10.0,Calm,Calm,-,N/A,,Clear,0,2013-03-26 10:55:00
6:15 AM,16.7,12.2,82,30.28,10.0,SW,5.8,-,N/A,,Clear,220,2013-03-26 11:15:00
6:35 AM,16.7,12.2,82,30.28,10.0,SW,4.6,-,N/A,,Clear,220,2013-03-26 11:35:00
6:55 AM,16.0,11.8,84,30.29,10.0,SW,5.8,-,N/A,,Clear,220,2013-03-26 11:55:00
7:15 AM,15.8,11.1,82,30.29,10.0,SSW,5.8,-,N/A,,Clear,210,2013-03-26 12:15:00
7:35 AM,16.7,12.0,82,30.28,10.0,South,4.6,-,N/A,,Clear,190,2013-03-26 12:35:00
7:55 AM,17.4,12.6,81,30.28,10.0,SSW,6.9,-,N/A,,Clear,210,2013-03-26 12:55:00
8:15 AM,18.5,13.1,79,30.29,10.0,SSW,6.9,-,N/A,,Clear,200,2013-03-26 13:15:00
8:35 AM,20.1,14.7,80,30.28,10.0,South,6.9,-,N/A,,Clear,190,2013-03-26 13:35:00
8:55 AM,22.3,15.8,76,30.28,10.0,South,8.1,-,N/A,,Clear,190,2013-03-26 13:55:00
9:15 AM,24.4,17.8,76,30.28,10.0,SSW,5.8,-,N/A,,Clear,200,2013-03-26 14:15:00
9:35 AM,26.1,18.3,73,30.28,10.0,South,11.5,16.1,N/A,,Clear,190,2013-03-26 14:35:00
9:55 AM,27.0,17.8,68,30.28,10.0,South,15.0,-,N/A,,Clear,190,2013-03-26 14:55:00
10:15 AM,28.4,19.0,68,30.27,10.0,SSW,9.2,-,N/A,,Clear,200,2013-03-26 15:15:00
10:35 AM,30.2,19.6,65,30.27,10.0,South,10.4,-,N/A,,Clear,190,2013-03-26 15:35:00
10:55 AM,31.5,20.3,63,30.27,10.0,South,12.7,-,N/A,,Clear,180,2013-03-26 15:55:00
11:15 AM,32.7,20.7,61,30.27,10.0,South,11.5,-,N/A,,Clear,180,2013-03-26 16:15:00
11:35 AM,34.2,20.7,58,30.26,10.0,South,13.8,-,N/A,,Clear,190,2013-03-26 16:35:00
11:55 AM,35.8,21.0,55,30.25,10.0,South,11.5,-,N/A,,Clear,180,2013-03-26 16:55:00
12:15 PM,37.4,20.5,51,30.25,10.0,South,15.0,-,N/A,,Clear,190,2013-03-26 17:15:00
12:35 PM,38.3,19.6,47,30.24,10.0,SSW,15.0,-,N/A,,Clear,200,2013-03-26 17:35:00
12:55 PM,39.2,19.6,45,30.23,10.0,South,16.1,19.6,N/A,,Clear,190,2013-03-26 17:55:00
1:15 PM,40.1,18.9,43,30.23,10.0,South,15.0,-,N/A,,Clear,190,2013-03-26 18:15:00
1:35 PM,40.3,18.3,41,30.21,10.0,South,15.0,-,N/A,,Clear,190,2013-03-26 18:35:00
1:55 PM,41.0,17.8,39,30.20,10.0,South,12.7,18.4,N/A,,Clear,170,2013-03-26 18:55:00
2:15 PM,42.4,17.8,37,30.19,10.0,South,15.0,-,N/A,,Clear,170,2013-03-26 19:15:00
2:35 PM,42.8,17.1,36,30.17,10.0,South,10.4,18.4,N/A,,Clear,190,2013-03-26 19:35:00
2:55 PM,43.9,17.4,35,30.17,10.0,South,16.1,21.9,N/A,,Clear,180,2013-03-26 19:55:00
3:15 PM,43.7,17.2,35,30.16,10.0,South,9.2,-,N/A,,Clear,170,2013-03-26 20:15:00
3:35 PM,44.1,17.8,35,30.14,10.0,SE,12.7,17.3,N/A,,Clear,140,2013-03-26 20:35:00
3:55 PM,43.9,16.3,33,30.14,10.0,South,11.5,19.6,N/A,,Clear,180,2013-03-26 20:55:00
4:15 PM,43.7,17.2,35,30.13,10.0,South,13.8,18.4,N/A,,Clear,170,2013-03-26 21:15:00
4:35 PM,46.2,19.8,35,30.13,10.0,South,15.0,18.4,N/A,,Clear,190,2013-03-26 21:35:00
4:55 PM,45.7,18.9,34,30.13,10.0,South,13.8,-,N/A,,Clear,180,2013-03-26 21:55:00
5:15 PM,45.9,19.8,35,30.12,10.0,South,16.1,21.9,N/A,,Clear,170,2013-03-26 22:15:00
5:35 PM,46.0,19.9,35,30.11,10.0,South,16.1,21.9,N/A,,Clear,170,2013-03-26 22:35:00
5:55 PM,45.7,19.8,36,30.10,10.0,SSE,13.8,-,N/A,,Clear,160,2013-03-26 22:55:00
6:15 PM,45.7,20.3,37,30.10,10.0,SSE,15.0,-,N/A,,Clear,150,2013-03-26 23:15:00
6:35 PM,45.5,20.8,38,30.10,10.0,SSE,13.8,-,N/A,,Clear,150,2013-03-26 23:35:00
6:55 PM,45.1,21.7,40,30.09,10.0,SSE,13.8,-,N/A,,Clear,150,2013-03-26 23:55:00
7:15 PM,44.2,21.9,41,30.09,10.0,SE,12.7,17.3,N/A,,Clear,140,2013-03-27 00:15:00
7:35 PM,42.1,21.9,45,30.09,10.0,SE,11.5,-,N/A,,Clear,140,2013-03-27 00:35:00
7:55 PM,40.1,22.3,49,30.09,10.0,SE,10.4,-,N/A,,Clear,130,2013-03-27 00:55:00
8:15 PM,36.0,22.1,57,30.09,10.0,ESE,9.2,-,N/A,,Clear,120,2013-03-27 01:15:00
8:35 PM,34.7,22.6,61,30.09,10.0,ESE,9.2,-,N/A,,Clear,120,2013-03-27 01:35:00
8:55 PM,34.7,22.8,62,30.09,10.0,SE,9.2,-,N/A,,Clear,130,2013-03-27 01:55:00
9:15 PM,35.1,23.4,62,30.10,10.0,ESE,9.2,-,N/A,,Clear,120,2013-03-27 02:15:00
9:35 PM,35.8,23.7,62,30.10,10.0,SE,10.4,-,N/A,,Clear,130,2013-03-27 02:35:00
9:55 PM,36.5,23.0,58,30.11,10.0,SE,9.2,-,N/A,,Clear,130,2013-03-27 02:55:00
10:15 PM,35.8,23.9,62,30.12,10.0,SE,8.1,-,N/A,,Clear,130,2013-03-27 03:15:00
10:35 PM,36.7,23.4,59,30.12,10.0,SE,12.7,-,N/A,,Mostly Cloudy,130,2013-03-27 03:35:00
10:55 PM,36.5,23.5,59,30.13,10.0,SE,11.5,-,N/A,,Overcast,130,2013-03-27 03:55:00
11:15 PM,36.1,24.4,63,30.13,10.0,SE,9.2,-,N/A,,Overcast,130,2013-03-27 04:15:00
11:35 PM,35.6,25.3,66,30.13,10.0,SSE,11.5,-,N/A,,Mostly Cloudy,150,2013-03-27 04:35:00
11:55 PM,35.2,25.7,68,30.13,10.0,SSE,13.8,-,N/A,,Scattered Clouds,150,2013-03-27 04:55:00